When you browse on this site, cookies collect data to enhance your experience and personalize the content and advertising you see.
Visit our Privacy Policy to learn more. By continuing to use the site, you agree to this use of cookies and data.
  • In United Kingdom
  • List of Countries
  • For 7 days
  • Water Temperature
  • Weather Map
  • Weather Widgets
  • user-avatar
    Login

    Hourly Weather Hakkari

    Today, 21 August, Wednesday

    Time Temperature Precipitation Wind Pressure Humidity
    00:00 +18°C° 0 mm 1 mps 615 mmHg 43%
    01:00 +19°C° 0 mm 1 mps 615 mmHg 39%
    02:00 +19°C° 0 mm 1 mps 615 mmHg 35%
    03:00 +19°C° 0 mm 1 mps 615 mmHg 31%
    04:00 +18°C° 0 mm 2 mps 615 mmHg 29%
    05:00 +18°C° 0 mm 2 mps 616 mmHg 27%
    06:00 +19°C° 0 mm 2 mps 616 mmHg 25%
    07:00 +23°C° 0 mm 2 mps 617 mmHg 22%
    08:00 +26°C° 0 mm 2 mps 619 mmHg 18%
    09:00 +30°C° 0 mm 2 mps 620 mmHg 15%
    10:00 +31°C° 0 mm 3 mps 620 mmHg 14%
    11:00 +33°C° 0 mm 3 mps 620 mmHg 13%
    12:00 +35°C° 0 mm 4 mps 620 mmHg 12%
    13:00 +35°C° 0 mm 5 mps 620 mmHg 11%
    14:00 +35°C° 0 mm 5 mps 620 mmHg 11%
    15:00 +35°C° 0 mm 6 mps 619 mmHg 11%
    16:00 +34°C° 0 mm 5 mps 619 mmHg 12%
    17:00 +32°C° 0 mm 5 mps 618 mmHg 14%
    18:00 +30°C° 0 mm 4 mps 617 mmHg 15%
    19:00 +26°C° 0 mm 3 mps 616 mmHg 23%
    20:00 +21°C° 0 mm 2 mps 615 mmHg 32%
    21:00 +19°C° 0 mm 1 mps 614 mmHg 40%
    22:00 +18°C° 0 mm 1 mps 614 mmHg 43%
    23:00 +18°C° 0 mm 1 mps 614 mmHg 47%

    Tomorrow, 22 August, Thursday

    Time Temperature Precipitation Wind Pressure Humidity
    00:00 +15°C° 0 mm 0 mps 613 mmHg 51%
    01:00 +16°C° 0 mm 1 mps 613 mmHg 51%
    02:00 +15°C° 0 mm 1 mps 613 mmHg 52%
    03:00 +15°C° 0 mm 1 mps 613 mmHg 53%
    04:00 +15°C° 0 mm 1 mps 613 mmHg 47%
    05:00 +16°C° 0 mm 1 mps 613 mmHg 41%
    06:00 +16°C° 0 mm 1 mps 613 mmHg 35%
    07:00 +21°C° 0 mm 1 mps 615 mmHg 28%
    08:00 +25°C° 0 mm 2 mps 616 mmHg 21%
    09:00 +29°C° 0 mm 3 mps 618 mmHg 14%
    10:00 +32°C° 0 mm 4 mps 618 mmHg 12%
    11:00 +33°C° 0 mm 5 mps 618 mmHg 10%
    12:00 +34°C° 0 mm 6 mps 618 mmHg 8%
    13:00 +34°C° 0 mm 5 mps 618 mmHg 8%
    14:00 +34°C° 0 mm 5 mps 618 mmHg 8%
    15:00 +34°C° 0 mm 5 mps 617 mmHg 8%
    16:00 +32°C° 0 mm 5 mps 617 mmHg 10%
    17:00 +30°C° 0 mm 4 mps 616 mmHg 12%
    18:00 +28°C° 0 mm 3 mps 615 mmHg 15%
    19:00 +24°C° 0 mm 2 mps 614 mmHg 26%
    20:00 +20°C° 0 mm 1 mps 613 mmHg 37%
    21:00 +15°C° 0 mm 1 mps 612 mmHg 49%
    22:00 +15°C° 0 mm 1 mps 612 mmHg 52%
    23:00 +14°C° 0 mm 1 mps 612 mmHg 56%

    Day after tomorrow, 23 August, Friday

    Time Temperature Precipitation Wind Pressure Humidity
    00:00 +12°C° 0 mm 0 mps 611 mmHg 59%
    01:00 +12°C° 0 mm 0 mps 611 mmHg 60%
    02:00 +11°C° 0 mm 0 mps 611 mmHg 61%
    03:00 +11°C° 0 mm 0 mps 611 mmHg 62%
    04:00 +11°C° 0 mm 0 mps 611 mmHg 55%
    05:00 +12°C° 0 mm 0 mps 611 mmHg 48%
    06:00 +13°C° 0 mm 1 mps 612 mmHg 41%
    07:00 +18°C° 0 mm 1 mps 613 mmHg 32%
    08:00 +23°C° 0 mm 1 mps 615 mmHg 23%
    09:00 +27°C° 0 mm 1 mps 617 mmHg 14%
    10:00 +29°C° 0 mm 2 mps 618 mmHg 13%
    11:00 +30°C° 0 mm 3 mps 618 mmHg 11%
    12:00 +33°C° 0 mm 4 mps 618 mmHg 10%
    13:00 +33°C° 0 mm 4 mps 618 mmHg 10%
    14:00 +33°C° 0 mm 4 mps 618 mmHg 11%
    15:00 +33°C° 0 mm 4 mps 618 mmHg 12%
    16:00 +32°C° 0 mm 4 mps 617 mmHg 14%
    17:00 +29°C° 0 mm 3 mps 617 mmHg 17%
    18:00 +28°C° 0 mm 3 mps 616 mmHg 20%
    19:00 +24°C° 0 mm 2 mps 615 mmHg 31%
    20:00 +20°C° 0 mm 2 mps 614 mmHg 42%
    21:00 +16°C° 0 mm 1 mps 613 mmHg 53%
    22:00 +15°C° 0 mm 1 mps 613 mmHg 57%
    23:00 +15°C° 0 mm 1 mps 613 mmHg 60%

    24 August, Saturday

    Time Temperature Precipitation Wind Pressure Humidity
    00:00 +14°C° 0 mm 1 mps 613 mmHg 64%
    01:00 +13°C° 0 mm 0 mps 612 mmHg 65%
    02:00 +12°C° 0 mm 0 mps 612 mmHg 67%
    03:00 +12°C° 0 mm 0 mps 612 mmHg 68%
    04:00 +12°C° 0 mm 0 mps 612 mmHg 66%
    05:00 +12°C° 0 mm 0 mps 613 mmHg 65%
    06:00 +12°C° 0 mm 0 mps 613 mmHg 63%
    07:00 +19°C° 0 mm 1 mps 615 mmHg 48%
    08:00 +23°C° 0 mm 1 mps 617 mmHg 33%
    09:00 +27°C° 0 mm 2 mps 619 mmHg 18%
    10:00 +29°C° 0 mm 3 mps 619 mmHg 16%
    11:00 +30°C° 0 mm 5 mps 620 mmHg 15%
    12:00 +33°C° 0 mm 6 mps 620 mmHg 14%
    13:00 +33°C° 0 mm 6 mps 620 mmHg 15%
    14:00 +33°C° 0 mm 6 mps 620 mmHg 15%
    15:00 +33°C° 0 mm 6 mps 619 mmHg 16%
    16:00 +32°C° 0 mm 5 mps 619 mmHg 19%
    17:00 +30°C° 0 mm 4 mps 618 mmHg 22%
    18:00 +28°C° 0 mm 2 mps 618 mmHg 25%
    19:00 +25°C° 0 mm 2 mps 617 mmHg 36%
    20:00 +22°C° 0 mm 1 mps 616 mmHg 47%
    21:00 +19°C° 0 mm 1 mps 615 mmHg 57%
    22:00 +18°C° 0 mm 1 mps 615 mmHg 59%
    23:00 +18°C° 0 mm 1 mps 615 mmHg 61%

    25 August, Sunday

    Time Temperature Precipitation Wind Pressure Humidity
    00:00 +16°C° 0 mm 1 mps 615 mmHg 63%
    01:00 +16°C° 0 mm 1 mps 614 mmHg 63%
    02:00 +16°C° 0 mm 1 mps 614 mmHg 63%
    03:00 +16°C° 0 mm 1 mps 614 mmHg 63%
    04:00 +16°C° 0 mm 1 mps 615 mmHg 59%
    05:00 +16°C° 0 mm 1 mps 615 mmHg 55%
    06:00 +18°C° 0 mm 1 mps 615 mmHg 51%
    07:00 +22°C° 0 mm 1 mps 617 mmHg 42%
    08:00 +25°C° 0 mm 1 mps 618 mmHg 33%
    09:00 +29°C° 0 mm 1 mps 620 mmHg 23%
    10:00 +30°C° 0 mm 2 mps 620 mmHg 22%
    11:00 +31°C° 0 mm 3 mps 620 mmHg 20%
    12:00 +33°C° 0 mm 4 mps 620 mmHg 19%
    13:00 +33°C° 0 mm 5 mps 620 mmHg 18%
    14:00 +34°C° 0 mm 6 mps 620 mmHg 17%
    15:00 +34°C° 0 mm 6 mps 619 mmHg 16%
    16:00 +33°C° 0 mm 5 mps 619 mmHg 18%
    17:00 +32°C° 0 mm 4 mps 618 mmHg 20%
    18:00 +29°C° 0 mm 2 mps 618 mmHg 23%
    19:00 +26°C° 0 mm 2 mps 617 mmHg 33%
    20:00 +23°C° 0 mm 1 mps 616 mmHg 43%
    21:00 +20°C° 0 mm 1 mps 615 mmHg 54%
    22:00 +19°C° 0 mm 1 mps 615 mmHg 55%
    23:00 +19°C° 0 mm 1 mps 615 mmHg 57%

    26 August, Monday

    Time Temperature Precipitation Wind Pressure Humidity
    00:00 +18°C° 0 mm 1 mps 615 mmHg 59%
    01:00 +18°C° 0 mm 1 mps 614 mmHg 60%
    02:00 +18°C° 0 mm 1 mps 614 mmHg 61%
    03:00 +16°C° 0 mm 1 mps 614 mmHg 62%
    04:00 +16°C° 0 mm 1 mps 614 mmHg 57%
    05:00 +16°C° 0 mm 0 mps 614 mmHg 52%
    06:00 +16°C° 0 mm 0 mps 615 mmHg 47%
    07:00 +21°C° 0 mm 2 mps 616 mmHg 37%
    08:00 +26°C° 0 mm 3 mps 618 mmHg 28%
    09:00 +32°C° 0 mm 4 mps 619 mmHg 18%
    10:00 +33°C° 0 mm 5 mps 620 mmHg 17%
    11:00 +34°C° 0 mm 7 mps 620 mmHg 16%
    12:00 +35°C° 0 mm 8 mps 620 mmHg 15%
    13:00 +34°C° 0 mm 8 mps 620 mmHg 16%
    14:00 +34°C° 0 mm 8 mps 619 mmHg 17%
    15:00 +33°C° 0 mm 8 mps 619 mmHg 18%
    16:00 +32°C° 0 mm 7 mps 618 mmHg 20%
    17:00 +30°C° 0 mm 5 mps 618 mmHg 22%
    18:00 +28°C° 0 mm 3 mps 617 mmHg 24%
    19:00 +25°C° 0 mm 3 mps 616 mmHg 35%
    20:00 +21°C° 0 mm 2 mps 615 mmHg 46%
    21:00 +18°C° 0 mm 1 mps 614 mmHg 57%
    22:00 +16°C° 0 mm 1 mps 614 mmHg 60%
    23:00 +15°C° 0 mm 1 mps 614 mmHg 62%
    Show more